Regional Weather Roundup
Issued by NWS

Home | Current Version | Previous Version | Graphics & Text | Print | Product List | Glossary Off
Versions: 1 2 3 4 5 6 7 8 9 10 11 12 13 14 15 16 17 18 19 20 21 22 23 24 25 26 27 28 29 30 31 32 33 34 35 36 37 38 39 40 41 42 43 44 45 46 47 48 49 50

000
ASUS43 KDMX 281601
RWRIA

WEATHER ROUNDUP FOR IOWA
NATIONAL WEATHER SERVICE DES MOINES IA
1100 AM CDT FRI APR 28 2017

NOTE: "FAIR" INDICATES FEW OR NO CLOUDS BELOW 12,000 FEET WITH NO
SIGNIFICANT WEATHER AND/OR OBSTRUCTIONS TO VISIBILITY.

* - THESE STATIONS ARE NOT NWS STATIONS...THUS NOT UNDER NWS
QUALITY CONTROL.  THEY ALSO DO NOT REPORT WEATHER SUCH
AS PRECIPITATION OR FOG.

IAZ001>003-012>014-020>022-031>034-043>046-281700-
   NORTHWEST IOWA

CITY           SKY/WX    TMP DP  RH WIND       PRES   REMARKS
CARROLL *      MIX PCPN  34  34 100 NE9       29.89R WCI  26
CHEROKEE *     CLOUDY    39  32  76 E8        29.91R WCI  33
DENISON *      LGT RAIN  34  34 100 NE16G24   29.87F WCI  23
LE MARS *      CLOUDY    39  30  70 NE7G14    29.92S WCI  34
ORANGE CITY *  CLOUDY    39  34  81 NE8       29.91S WCI  34
SHELDON *      CLOUDY    39  32  75 NE14      29.91S WCI  31
SIOUX CITY     LGT RAIN  38  31  76 E9        29.90S WCI  31
SPENCER        PTSUNNY   41  30  65 NE12      29.93R
STORM LAKE *   CLOUDY    37  30  75 E10       29.90S WCI  30
$$

IAZ055>058-069>071-079>083-090>094-281700-
   SOUTHWEST IOWA

CITY           SKY/WX    TMP DP  RH WIND       PRES   REMARKS
ATLANTIC *     LGT RAIN  36  34  93 NE18G28   29.81S WCI  25
AUDUBON *      MIX PCPN  34  30  86 NE10G17   29.86S WCI  26
CLARINDA *     CLOUDY    39  39 100 NE13G24   29.78R FOG     WCI  32
COUNCIL BLFS * LGT RAIN  37  37 100 NE22      29.80R WCI  27
CRESTON *      LGT RAIN  37  36  93 NE28G35   29.78F WCI  25
HARLAN  *      LGT SNOW  36  36 100 NE20G28   29.86R WCI  25
LAMONI         LGT RAIN  40  38  93 NE20G25   29.76F FOG     WCI  30
RED OAK *      MIX PCPN  37  37 100 NE17G28   29.77F WCI  28
SHENANDOAH *   HVY RAIN  39  37  93 NE20G31   29.76R WCI  30
$$

IAZ047>049-059>061-072>074-084-281700-
   CENTRAL IOWA

CITY           SKY/WX    TMP DP  RH WIND       PRES   REMARKS
AMES           LGT RAIN  38  34  85 E9        29.90R WCI  31
ANKENY *       LGT RAIN  37  32  81 NE10      29.89S WCI  30
BOONE *        MIX PCPN  37  34  87 NE13      29.87S WCI  29
CHARITON *     LGT RAIN  39  37  93 NE14      29.82S WCI  31
DES MOINES     LGT RAIN  38  33  82 NE12      29.86F WCI  30
GRINNELL*      LGT RAIN  38  32  79 NE16      29.89F WCI  29
KNOXVILLE *    LGT RAIN  39  34  81 NE15G21   29.82F WCI  31
MARSHALLTOWN   LGT RAIN  39  32  76 E10       29.89F WCI  32
NEWTON *       CLOUDY    37  32  81 NE14      29.86S WCI  29
PELLA *        LGT RAIN  39  35  85 NE6       29.86F WCI  35
PERRY *        RAIN      37  33  88 E8        29.89R WCI  30
$$

IAZ004>006-015-016-023>025-035-036-281700-
   NORTH CENTRAL IOWA

CITY           SKY/WX    TMP DP  RH WIND       PRES   REMARKS
ALGONA *       CLOUDY    39  30  70 CALM      29.93R
CLARION *      CLOUDY    41  30  65 E7        29.91S
ESTHERVILLE    CLOUDY    39  32  76 N9        29.92S WCI  33
FORT DODGE *   CLOUDY    37  28  70 E5        29.92S WCI  34
MASON CITY     CLOUDY    41  29  62 E5        29.93R
FOREST CITY *    N/A     43  28  56 N3        29.92R
WEBSTER CITY * CLOUDY    39  28  65 NE10      29.89S WCI  32
IOWA FALLS *   CLOUDY    41  30  65 NE8       29.91S
$$

IAZ007>011-017>019-026>030-037>042-050>054-066-281700-
   NORTHEAST IOWA

CITY           SKY/WX    TMP DP  RH WIND       PRES   REMARKS
CEDAR RAPIDS   LGT RAIN  41  32  70 NE12      29.90R
CHARLES CITY * CLOUDY    43  28  56 VRB5      29.92S
CLINTON *      CLOUDY    44  36  73 E12       29.92F
DECORAH *      CLOUDY    43  28  56 VRB6      29.90S
DUBUQUE        CLOUDY    41  31  67 NE12      29.92S
MONTICELLO *   CLOUDY    41  32  70 NE8G15    29.91F
OELWEIN *      CLOUDY    43  30  61 NE8       29.92
WATERLOO       CLOUDY    42  29  59 E10       29.91F
$$

IAZ064-065-067-068-078-281700-
   EAST CENTRAL IOWA

CITY           SKY/WX    TMP DP  RH WIND       PRES   REMARKS
DAVENPORT      LGT RAIN  44  36  73 E13       29.92R
IOWA CITY      LGT RAIN  43  33  68 NE10      29.92R
MUSCATINE *    LGT RAIN  43  39  87 NE9       29.91R
QUAD CITIES    LGT RAIN  44  38  79 NE10      29.91R
$$

IAZ062-063-075>077-085>089-095>099-281700-
   SOUTHEAST IOWA

CITY           SKY/WX    TMP DP  RH WIND       PRES   REMARKS
BURLINGTON     LGT RAIN  44  41  89 NE12      29.85R
FAIRFIELD *    CLOUDY    41  37  87 NE13      29.86S HAZE
FORT MADISON * LGT RAIN  45  41  87 NE9       29.85S
KEOKUK *       LGT RAIN  46  45  93 NE7G15    29.83R
OSKALOOSA *    RAIN      39  36  89 NE12      29.87R WCI  32
OTTUMWA        RAIN      41  38  89 NE15      29.85S FOG
WASHINGTON *   LGT RAIN  41  39  93 NE13      29.90R
$$

ABBREVIATIONS USED IN REMARKS
   TC - TEMPERATURES IN CELSIUS
  WCI - WIND CHILL INDEX
   HX - HEAT INDEX
  VSB - VISIBILITY
$$





USA.gov is the U.S. government's official web portal to all federal, state and local government web resources and services.